STARLINK-5762 (55590 NORAD) Tracking and Keplerian Element Data

This shows tracking and keplerian element data for the satellite.

Feedback or suggestion? Click here.




ElementValue
Catalog55590
NameSTARLINK-5762
Epoch Orbit654
Epoch Day85.25001157
Epoch Year2023
RAAN109.9785
Inclination42.9982
Eccentricity0.0001337
Argument of Perigee274.6746
Mean Anonmoly96.6803
Mean Motion15.07879291
Decay Rate-0.01213336
L11 55590U 23020X 23085.25001157 -.01213336 00000+0 -84982-1 0 9992
L22 55590 42.9982 109.9785 0001337 274.6746 96.6803 15.07879291 6545



Live tracking and technical data element details for STARLINK-5762 (NORAD 55590). STARLINK-5762 can be tracked NOW for your location showing map with azimuth and elevation plus other details from your city location.







IsCatalogInMostPopularTable: catalog: 55590, numindb: -1

Insert: records affected: 1


GetName: 55590 STARLINK-5762

Hit Count: inserted at: Tue, 28 Mar 2023 02:09:17 GMT